#�ϑ�����,���ϕ���,���ϕ���,�ő啗��,�ő啗����������,�ő�u�ԕ���,�ő�u�ԕ�����������
#(�N����),(m/s)   ,(16����),(m/s)   ,(16����)        ,(m/s)       ,(16����)            
2013/5/28 0:01,2.8,4,2.8,4,5.5,4
2013/5/28 0:02,3.1,4,3.1,4,5.7,5
2013/5/28 0:03,3,4,3.1,4,3.8,3
2013/5/28 0:04,2.9,4,3,4,3,3
2013/5/28 0:05,2.9,4,3,4,3.8,3
2013/5/28 0:06,2.8,4,2.9,4,3.1,5
2013/5/28 0:07,2.7,4,2.8,4,3.1,5
2013/5/28 0:08,2.7,4,2.7,4,2.7,3
2013/5/28 0:09,2.6,4,2.7,4,3.2,3
2013/5/28 0:10,2.5,4,2.6,4,3.9,4
2013/5/28 0:11,2.5,4,2.5,4,4.4,4
2013/5/28 0:12,2.3,4,2.4,4,3.7,6
2013/5/28 0:13,2.3,4,2.3,4,4.2,3
2013/5/28 0:14,2.4,4,2.4,4,3.5,5
2013/5/28 0:15,2.4,4,2.4,4,3.7,3
2013/5/28 0:16,2.4,4,2.4,4,4.2,5
2013/5/28 0:17,2.3,4,2.4,4,1.5,3
2013/5/28 0:18,2.2,4,2.3,4,1.8,4
2013/5/28 0:19,2.2,4,2.2,4,3.1,6
2013/5/28 0:20,2.1,4,2.2,4,2.1,5
2013/5/28 0:21,2,4,2.1,4,2.7,5
2013/5/28 0:22,1.9,4,2,4,2.9,5
2013/5/28 0:23,1.9,4,1.9,4,3,5
2013/5/28 0:24,1.9,4,1.9,4,2.6,5
2013/5/28 0:25,1.8,4,1.9,4,3.3,7
2013/5/28 0:26,1.8,5,1.8,4,3.9,6
2013/5/28 0:27,1.9,5,1.9,4,4.5,5
2013/5/28 0:28,2.2,5,2.2,4,5.4,5
2013/5/28 0:29,2.2,5,2.2,4,3.6,5
2013/5/28 0:30,2.4,5,2.4,5,4.7,4
2013/5/28 0:31,2.4,5,2.4,5,3.8,5
2013/5/28 0:32,2.6,5,2.6,5,4.9,3
2013/5/28 0:33,2.7,5,2.7,5,5.4,3
2013/5/28 0:34,2.9,5,2.9,5,5,5
2013/5/28 0:35,2.8,5,2.9,5,4.4,6
2013/5/28 0:36,2.9,5,2.9,5,3.9,6
2013/5/28 0:37,2.9,5,2.9,5,4.1,8
2013/5/28 0:38,2.8,5,2.9,5,3.9,3
2013/5/28 0:39,2.7,5,2.8,5,3.7,3
2013/5/28 0:40,2.7,5,2.7,5,3.6,5
2013/5/28 0:41,2.8,5,2.8,5,5,6
2013/5/28 0:42,2.7,5,2.8,5,4.8,7
2013/5/28 0:43,2.7,5,2.7,5,5.7,6
2013/5/28 0:44,2.5,5,2.7,5,3.6,4
2013/5/28 0:45,2.6,5,2.6,5,3.3,5
2013/5/28 0:46,2.7,5,2.7,5,5,6
2013/5/28 0:47,2.7,5,2.7,5,3.5,4
2013/5/28 0:48,2.7,5,2.7,5,4.2,6
2013/5/28 0:49,2.6,5,2.7,5,3.7,5
2013/5/28 0:50,2.5,5,2.6,5,1.3,7
2013/5/28 0:51,2.3,5,2.5,5,2,6
2013/5/28 0:52,2.3,5,2.3,5,4.3,7
2013/5/28 0:53,2.3,5,2.3,6,5,7
2013/5/28 0:54,2.5,6,2.5,5,5.7,7
2013/5/28 0:55,2.4,6,2.5,5,4.4,6
2013/5/28 0:56,2.2,6,2.4,5,3.2,7
2013/5/28 0:57,2.2,6,2.2,5,3.8,6
2013/5/28 0:58,2.2,6,2.2,5,3.6,6
2013/5/28 0:59,2.3,6,2.3,5,4.8,5
2013/5/28 1:00,2.5,6,2.5,5,4.4,2
2013/5/28 1:01,2.8,6,2.8,6,6.2,7
2013/5/28 1:02,2.7,6,2.8,6,5.5,8
2013/5/28 1:03,2.7,6,2.8,6,4.2,5
2013/5/28 1:04,2.6,5,2.7,6,5.1,5
2013/5/28 1:05,2.7,5,2.7,6,3.7,6
2013/5/28 1:06,2.8,5,2.8,6,3.7,6
2013/5/28 1:07,2.9,5,2.9,5,4.1,4
2013/5/28 1:08,2.9,5,2.9,5,3,4
2013/5/28 1:09,2.7,5,2.9,5,3.2,8
2013/5/28 1:10,2.6,5,2.7,5,2.2,4
2013/5/28 1:11,2.4,5,2.6,5,2.5,4
2013/5/28 1:12,2.3,5,2.4,5,2.4,3
2013/5/28 1:13,2.2,5,2.3,5,1.8,5
2013/5/28 1:14,1.9,4,2.1,5,1.5,4
2013/5/28 1:15,1.7,4,1.9,5,2.2,4
2013/5/28 1:16,1.9,4,1.9,5,5.7,5
2013/5/28 1:17,1.7,4,1.9,5,4.2,4
2013/5/28 1:18,1.7,4,1.7,5,3.5,2
2013/5/28 1:19,1.8,4,1.8,5,3.9,5
2013/5/28 1:20,1.9,4,1.9,5,6.1,6
2013/5/28 1:21,2.1,4,2.1,5,6.4,5
2013/5/28 1:22,2.5,5,2.5,5,7.4,6
2013/5/28 1:23,2.7,5,2.7,5,6.5,7
2013/5/28 1:24,2.9,5,2.9,5,3.7,4
2013/5/28 1:25,3.1,5,3.1,5,3.9,4
2013/5/28 1:26,3.1,5,3.1,5,5.7,6
2013/5/28 1:27,3.2,5,3.3,5,6.3,7
2013/5/28 1:28,3.3,6,3.3,5,4.2,7
2013/5/28 1:29,3.2,6,3.3,5,2.5,4
2013/5/28 1:30,3,6,3.2,5,2,5
2013/5/28 1:31,2.7,6,3,5,2.2,5
2013/5/28 1:32,2.4,5,2.7,5,4.4,5
2013/5/28 1:33,2.4,5,2.4,5,5.1,5
2013/5/28 1:34,2.6,5,2.6,5,6.1,5
2013/5/28 1:35,2.6,5,2.6,5,4.4,6
2013/5/28 1:36,2.5,5,2.6,5,3.9,7
2013/5/28 1:37,2.4,6,2.5,6,4.8,8
2013/5/28 1:38,2.2,6,2.3,6,2.7,8
2013/5/28 1:39,2.3,6,2.3,6,3.1,7
2013/5/28 1:40,2.4,6,2.4,6,2.4,5
2013/5/28 1:41,2.4,6,2.4,6,2.1,6
2013/5/28 1:42,2.2,6,2.4,5,1.6,5
2013/5/28 1:43,2.1,6,2.2,5,3.8,2
2013/5/28 1:44,2,6,2.1,5,4.2,5
2013/5/28 1:45,2,6,2,5,4.3,6
2013/5/28 1:46,1.8,6,2,6,2.4,6
2013/5/28 1:47,1.7,5,1.8,6,3.6,6
2013/5/28 1:48,2,5,2,6,5.8,6
2013/5/28 1:49,1.9,5,2,6,1.9,6
2013/5/28 1:50,1.9,5,1.9,6,3,5
2013/5/28 1:51,2.1,5,2.1,6,5.2,4
2013/5/28 1:52,2.3,5,2.3,5,3.2,6
2013/5/28 1:53,2.2,5,2.3,5,2.1,6
2013/5/28 1:54,1.9,5,2.2,5,1,6
2013/5/28 1:55,1.8,5,1.9,5,1.3,4
2013/5/28 1:56,1.7,5,1.8,5,1.5,6
2013/5/28 1:57,1.7,5,1.7,5,2.6,7
2013/5/28 1:58,1.5,5,1.7,5,2.7,6
2013/5/28 1:59,1.5,5,1.5,5,1.9,6
2013/5/28 2:00,1.4,5,1.5,5,2.2,3
2013/5/28 2:01,1.3,5,1.4,5,3,8
2013/5/28 2:02,1.3,5,1.3,5,4.9,5
2013/5/28 2:03,1.5,5,1.5,5,5.4,6
2013/5/28 2:04,1.7,5,1.7,5,4.3,6
2013/5/28 2:05,1.7,6,1.7,5,2.5,6
2013/5/28 2:06,1.8,6,1.8,6,2.5,5
2013/5/28 2:07,1.9,6,1.9,6,2.9,6
2013/5/28 2:08,1.9,6,1.9,6,3.3,7
2013/5/28 2:09,1.9,6,1.9,6,3.5,6
2013/5/28 2:10,2.1,6,2.1,6,4.5,5
2013/5/28 2:11,2.3,6,2.3,6,4.5,5
2013/5/28 2:12,2.2,6,2.3,6,3,4
2013/5/28 2:13,2.1,5,2.2,6,3.6,5
2013/5/28 2:14,2,5,2.1,6,3.5,4
2013/5/28 2:15,2.1,5,2.1,6,2.4,6
2013/5/28 2:16,2,5,2.1,6,1.4,3
2013/5/28 2:17,2,5,2,6,2,5
2013/5/28 2:18,1.9,5,1.9,6,1.8,2
2013/5/28 2:19,1.9,4,1.9,6,2.9,3
2013/5/28 2:20,1.8,4,1.9,6,2.7,3
2013/5/28 2:21,1.5,4,1.7,6,2.2,1
2013/5/28 2:22,1.4,3,1.5,6,1.3,16
2013/5/28 2:23,1.3,3,1.4,5,2.1,3
2013/5/28 2:24,1.4,3,1.4,5,3.7,4
2013/5/28 2:25,1.5,3,1.5,5,3.7,3
2013/5/28 2:26,1.6,3,1.6,5,3.7,4
2013/5/28 2:27,1.7,2,1.7,5,3.8,2
2013/5/28 2:28,1.8,2,1.8,5,3,4
2013/5/28 2:29,1.9,2,1.9,4,4.2,3
2013/5/28 2:30,2.1,3,2.1,2,4.9,3
2013/5/28 2:31,2.2,3,2.2,3,3.2,4
2013/5/28 2:32,2.3,3,2.3,3,3.7,3
2013/5/28 2:33,2.4,2,2.4,3,3.8,2
2013/5/28 2:34,2.5,2,2.5,2,4.2,2
2013/5/28 2:35,2.5,3,2.5,2,3.6,3
2013/5/28 2:36,2.5,3,2.5,2,4.4,2
2013/5/28 2:37,2.7,2,2.7,2,7.2,3
2013/5/28 2:38,2.8,2,2.8,3,4.9,3
2013/5/28 2:39,2.8,2,2.9,2,4.8,3
2013/5/28 2:40,2.7,2,2.8,2,3.7,2
2013/5/28 2:41,2.9,2,2.9,2,4.5,3
2013/5/28 2:42,2.9,2,2.9,2,4.8,4
2013/5/28 2:43,3,3,3,2,4.3,3
2013/5/28 2:44,3.1,3,3.1,3,6.5,4
2013/5/28 2:45,3.2,3,3.2,3,5.6,2
2013/5/28 2:46,3.2,3,3.2,3,4.4,3
2013/5/28 2:47,3.2,3,3.2,3,5.7,2
2013/5/28 2:48,3.2,3,3.2,3,5.6,3
2013/5/28 2:49,3.2,3,3.2,3,5.4,4
2013/5/28 2:50,3.3,3,3.3,3,4.7,3
2013/5/28 2:51,3.2,3,3.3,3,3.8,3
2013/5/28 2:52,3.2,3,3.2,3,3.6,3
2013/5/28 2:53,3.1,3,3.2,3,4.1,2
2013/5/28 2:54,3.2,2,3.2,3,6.1,3
2013/5/28 2:55,3.1,3,3.2,3,3,2
2013/5/28 2:56,3,3,3.1,3,3.9,3
2013/5/28 2:57,2.9,3,3,3,4.1,3
2013/5/28 2:58,2.7,3,2.9,3,4.3,3
2013/5/28 2:59,2.6,2,2.7,3,4.2,2
2013/5/28 3:00,2.7,2,2.7,3,4.4,3
2013/5/28 3:01,2.7,2,2.7,3,5.1,2
2013/5/28 3:02,2.9,2,2.9,3,5.7,3
2013/5/28 3:03,2.9,3,2.9,3,4.4,3
2013/5/28 3:04,2.9,3,3,2,6.3,2
2013/5/28 3:05,3,2,3,3,5.1,4
2013/5/28 3:06,3.2,2,3.2,2,6.5,3
2013/5/28 3:07,3.4,2,3.4,2,7.1,3
2013/5/28 3:08,3.7,2,3.7,2,7.6,3
2013/5/28 3:09,3.9,2,3.9,2,6.2,2
2013/5/28 3:10,3.9,2,3.9,2,4.9,3
2013/5/28 3:11,3.9,3,3.9,2,5.4,3
2013/5/28 3:12,4,3,4,3,6,3
2013/5/28 3:13,4.1,3,4.1,3,5.2,2
2013/5/28 3:14,4.1,3,4.1,3,7.1,3
2013/5/28 3:15,4,3,4.1,3,3.9,2
2013/5/28 3:16,3.9,3,4,3,3.8,2
2013/5/28 3:17,3.6,3,3.9,3,4.1,4
2013/5/28 3:18,3.4,3,3.6,3,4.8,3
2013/5/28 3:19,3.3,3,3.4,3,4.3,3
2013/5/28 3:20,3.2,3,3.3,3,3.8,4
2013/5/28 3:21,3,3,3.2,3,3.5,2
2013/5/28 3:22,2.9,3,3,3,4.7,3
2013/5/28 3:23,2.8,3,2.9,3,5.2,2
2013/5/28 3:24,2.7,3,2.9,3,5.4,2
2013/5/28 3:25,2.8,3,2.8,3,5.2,2
2013/5/28 3:26,3,3,3,3,6.5,3
2013/5/28 3:27,3.3,3,3.3,3,7.4,2
2013/5/28 3:28,3.3,2,3.3,3,5.5,3
2013/5/28 3:29,3.4,2,3.4,2,6.1,3
2013/5/28 3:30,3.5,2,3.5,2,4.8,2
2013/5/28 3:31,3.6,2,3.6,2,6.2,3
2013/5/28 3:32,3.8,2,3.8,2,7.2,2
2013/5/28 3:33,4,2,4,2,7.9,3
2013/5/28 3:34,4.1,2,4.1,2,6.1,3
2013/5/28 3:35,4.1,3,4.1,2,4.9,3
2013/5/28 3:36,4,3,4.1,2,4.3,3
2013/5/28 3:37,3.9,3,4,2,5.2,3
2013/5/28 3:38,4,3,4,2,5.2,4
2013/5/28 3:39,3.8,3,3.9,2,5.2,2
2013/5/28 3:40,3.9,3,3.9,2,5.6,2
2013/5/28 3:41,3.9,3,3.9,2,5.8,3
2013/5/28 3:42,3.8,3,3.9,2,6.1,3
2013/5/28 3:43,3.6,3,3.8,2,5.2,3
2013/5/28 3:44,3.6,3,3.7,2,5.1,3
2013/5/28 3:45,3.5,3,3.6,3,6.3,3
2013/5/28 3:46,3.5,2,3.6,3,5.1,2
2013/5/28 3:47,3.5,3,3.5,3,6,3
2013/5/28 3:48,3.6,3,3.6,3,6.7,3
2013/5/28 3:49,3.6,3,3.6,3,5.1,3
2013/5/28 3:50,3.6,2,3.6,3,6.4,3
2013/5/28 3:51,3.6,2,3.6,3,4.4,2
2013/5/28 3:52,3.4,2,3.6,3,4.4,3
2013/5/28 3:53,3.3,2,3.4,3,4.8,2
2013/5/28 3:54,3.4,2,3.4,3,4.9,3
2013/5/28 3:55,3.3,2,3.4,3,5.2,3
2013/5/28 3:56,3.5,3,3.5,2,7.8,4
2013/5/28 3:57,3.6,3,3.6,2,6.4,4
2013/5/28 3:58,3.4,3,3.6,3,5.6,3
2013/5/28 3:59,3.5,3,3.5,3,5.2,2
2013/5/28 4:00,3.5,3,3.6,2,5.1,2
2013/5/28 4:01,3.4,3,3.5,2,3.5,2
2013/5/28 4:02,3.4,3,3.4,3,4.2,3
2013/5/28 4:03,3.4,3,3.4,3,4.2,1
2013/5/28 4:04,3.4,3,3.4,3,5.2,3
2013/5/28 4:05,3.4,3,3.4,3,3.5,3
2013/5/28 4:06,3.2,2,3.4,3,4.3,3
2013/5/28 4:07,3,2,3.1,3,5.2,2
2013/5/28 4:08,2.9,2,3,3,4.4,4
2013/5/28 4:09,2.7,2,2.9,3,3.6,2
2013/5/28 4:10,2.6,2,2.7,3,3.7,3
2013/5/28 4:11,2.7,2,2.7,3,3.9,3
2013/5/28 4:12,2.7,2,2.7,3,3.6,4
2013/5/28 4:13,2.8,3,2.8,3,4.8,3
2013/5/28 4:14,2.8,3,2.8,3,4.4,3
2013/5/28 4:15,2.9,3,2.9,3,3.3,3
2013/5/28 4:16,2.8,3,2.8,2,3.9,3
2013/5/28 4:17,2.8,3,2.8,2,4.1,2
2013/5/28 4:18,2.9,3,2.9,2,4.4,4
2013/5/28 4:19,3,3,3,3,4.1,3
2013/5/28 4:20,3,3,3,3,3.8,3
2013/5/28 4:21,3,3,3,3,4.5,3
2013/5/28 4:22,3,3,3.1,3,4.3,3
2013/5/28 4:23,3,3,3.1,3,4.9,3
2013/5/28 4:24,3,3,3,3,4.9,4
2013/5/28 4:25,3,3,3,3,3.9,3
2013/5/28 4:26,3.1,3,3.1,3,5.4,3
2013/5/28 4:27,3,3,3.1,3,4.4,3
2013/5/28 4:28,3,3,3,3,4.3,4
2013/5/28 4:29,3,3,3,3,4.3,2
2013/5/28 4:30,3.1,3,3.1,3,4.9,3
2013/5/28 4:31,3.1,3,3.1,3,4.2,2
2013/5/28 4:32,3.1,3,3.1,3,4.5,4
2013/5/28 4:33,3,3,3.1,3,5.1,3
2013/5/28 4:34,3,3,3,3,3.9,4
2013/5/28 4:35,3.1,3,3.1,3,4.2,4
2013/5/28 4:36,3,3,3.1,3,3.6,4
2013/5/28 4:37,3,3,3,3,3.7,2
2013/5/28 4:38,2.9,3,3,3,4.3,3
2013/5/28 4:39,3,3,3,3,4.5,3
2013/5/28 4:40,2.9,3,3,3,3.7,4
2013/5/28 4:41,2.8,3,2.9,3,4.2,3
2013/5/28 4:42,2.9,3,2.9,3,5.1,3
2013/5/28 4:43,3,3,3,3,4.8,3
2013/5/28 4:44,2.9,3,3,3,3.8,3
2013/5/28 4:45,2.9,3,2.9,3,4.7,3
2013/5/28 4:46,2.9,3,2.9,3,3.6,4
2013/5/28 4:47,3,3,3,3,3.8,4
2013/5/28 4:48,3,3,3.1,3,4.3,2
2013/5/28 4:49,2.9,3,3,3,3.5,3
2013/5/28 4:50,2.9,3,2.9,3,4.4,3
2013/5/28 4:51,3,3,3,3,4.5,2
2013/5/28 4:52,2.9,3,3,3,5,3
2013/5/28 4:53,2.8,3,2.9,3,4.7,3
2013/5/28 4:54,2.8,3,2.9,3,4.3,2
2013/5/28 4:55,2.9,3,2.9,3,4.1,3
2013/5/28 4:56,2.9,3,2.9,3,3.8,4
2013/5/28 4:57,2.8,3,2.9,3,4.3,16
2013/5/28 4:58,2.9,3,2.9,3,6.4,2
2013/5/28 4:59,2.9,2,2.9,3,4.7,2
2013/5/28 5:00,2.9,2,2.9,3,4.7,2
2013/5/28 5:01,2.9,2,2.9,3,4.8,4
2013/5/28 5:02,2.9,2,2.9,3,4.9,2
2013/5/28 5:03,2.9,2,3,2,4.9,2
2013/5/28 5:04,3,2,3,2,4.4,3
2013/5/28 5:05,3,2,3,2,5,3
2013/5/28 5:06,3,2,3.1,2,4.5,3
2013/5/28 5:07,3.1,3,3.1,2,4.3,3
2013/5/28 5:08,2.9,3,3.1,2,3.1,3
2013/5/28 5:09,2.9,3,3,2,3.3,2
2013/5/28 5:10,2.9,3,3,2,4.9,4
2013/5/28 5:11,2.8,3,2.9,2,3.7,2
2013/5/28 5:12,2.8,3,2.8,2,3.9,2
2013/5/28 5:13,2.7,2,2.8,2,4.2,3
2013/5/28 5:14,2.7,2,2.8,2,5.1,3
2013/5/28 5:15,2.6,2,2.7,2,4.3,3
2013/5/28 5:16,2.6,2,2.7,2,5,3
2013/5/28 5:17,2.5,2,2.6,3,3.5,3
2013/5/28 5:18,2.6,2,2.6,3,5.5,3
2013/5/28 5:19,2.6,2,2.6,3,3.7,3
2013/5/28 5:20,2.7,2,2.7,3,4.9,3
2013/5/28 5:21,2.8,2,2.8,3,5.2,3
2013/5/28 5:22,2.8,2,2.8,3,4.4,4
2013/5/28 5:23,2.8,3,2.8,2,4.7,3
2013/5/28 5:24,2.7,3,2.8,2,3.9,3
2013/5/28 5:25,2.9,3,2.9,3,6.4,3
2013/5/28 5:26,3,3,3,3,5.5,3
2013/5/28 5:27,3,3,3.1,3,5.1,2
2013/5/28 5:28,3,3,3.1,3,4.8,3
2013/5/28 5:29,3,3,3.1,3,4.4,3
2013/5/28 5:30,3.1,3,3.1,3,6.7,3
2013/5/28 5:31,3.3,3,3.3,3,5.6,3
2013/5/28 5:32,3.2,3,3.2,3,3.6,2
2013/5/28 5:33,3.2,3,3.2,3,4.4,3
2013/5/28 5:34,3.3,3,3.3,3,4.5,3
2013/5/28 5:35,3.2,3,3.3,3,5.1,3
2013/5/28 5:36,3.2,3,3.2,3,5.5,3
2013/5/28 5:37,3.4,3,3.4,3,5.8,3
2013/5/28 5:38,3.4,3,3.4,3,4.7,3
2013/5/28 5:39,3.4,3,3.5,3,4.3,4
2013/5/28 5:40,3.3,3,3.4,3,4.4,3
2013/5/28 5:41,3.1,3,3.2,3,4.5,3
2013/5/28 5:42,3.3,3,3.3,3,4.2,4
2013/5/28 5:43,3.3,3,3.3,3,5.5,3
2013/5/28 5:44,3.3,3,3.3,3,4.7,3
2013/5/28 5:45,3.4,3,3.4,3,4.2,3
2013/5/28 5:46,3.2,3,3.3,3,3.7,4
2013/5/28 5:47,3,3,3.2,3,4.4,3
2013/5/28 5:48,3.1,3,3.1,3,4.1,1
2013/5/28 5:49,3.1,3,3.1,3,4.7,2
2013/5/28 5:50,3.2,3,3.2,3,6.2,2
2013/5/28 5:51,3.3,3,3.3,3,5.6,3
2013/5/28 5:52,3.3,3,3.3,3,4.5,2
2013/5/28 5:53,3.3,3,3.4,3,5.7,3
2013/5/28 5:54,3.3,3,3.3,3,4.7,3
2013/5/28 5:55,3.3,3,3.3,3,4.5,3
2013/5/28 5:56,3.3,3,3.3,3,4.8,3
2013/5/28 5:57,3.3,2,3.3,3,4.9,3
2013/5/28 5:58,3.4,2,3.4,3,4.7,3
2013/5/28 5:59,3.4,3,3.5,3,4.3,4
2013/5/28 6:00,3.3,3,3.4,3,4.8,3
2013/5/28 6:01,3.3,3,3.4,3,4.4,3
2013/5/28 6:02,3.3,3,3.3,3,4.7,3
2013/5/28 6:03,3.2,3,3.3,3,4.3,3
2013/5/28 6:04,3.2,3,3.2,3,3.8,3
2013/5/28 6:05,3.2,3,3.2,3,4.3,3
2013/5/28 6:06,3.1,3,3.2,3,4.7,3
2013/5/28 6:07,3.1,3,3.2,3,4.8,2
2013/5/28 6:08,3.1,3,3.1,3,4.7,3
2013/5/28 6:09,3.1,3,3.1,3,5.6,3
2013/5/28 6:10,3.1,3,3.2,3,5.1,2
2013/5/28 6:11,3.2,3,3.2,3,6.1,3
2013/5/28 6:12,3.3,3,3.3,3,6.8,2
2013/5/28 6:13,3.3,3,3.3,3,4.9,3
2013/5/28 6:14,3.3,3,3.3,3,4.7,3
2013/5/28 6:15,3.3,3,3.4,3,4.2,3
2013/5/28 6:16,3.3,3,3.3,3,4.3,3
2013/5/28 6:17,3.4,3,3.4,3,4.5,3
2013/5/28 6:18,3.3,3,3.4,3,5.5,4
2013/5/28 6:19,3.4,3,3.4,3,6.5,3
2013/5/28 6:20,3.4,3,3.4,3,5.4,4
2013/5/28 6:21,3.4,3,3.4,3,5.2,3
2013/5/28 6:22,3.3,3,3.3,3,5,3
2013/5/28 6:23,3.3,3,3.3,3,5,3
2013/5/28 6:24,3.3,3,3.4,3,6.1,3
2013/5/28 6:25,3.4,3,3.4,3,5.2,3
2013/5/28 6:26,3.4,3,3.4,3,3.6,3
2013/5/28 6:27,3.4,3,3.4,3,4.5,3
2013/5/28 6:28,3.4,3,3.4,3,4.2,2
2013/5/28 6:29,3.2,3,3.4,3,4.2,3
2013/5/28 6:30,3.3,3,3.3,3,5.5,3
2013/5/28 6:31,3.1,3,3.3,3,3.6,2
2013/5/28 6:32,3.2,3,3.2,3,6,3
2013/5/28 6:33,3.1,3,3.1,3,5.1,3
2013/5/28 6:34,3.1,3,3.1,3,5.2,3
2013/5/28 6:35,3.1,3,3.1,3,4.9,3
2013/5/28 6:36,3.2,3,3.2,3,5.8,4
2013/5/28 6:37,3.2,3,3.2,3,4.4,3
2013/5/28 6:38,3.1,3,3.2,3,3.5,4
2013/5/28 6:39,3.2,3,3.2,3,5.8,3
2013/5/28 6:40,3.1,3,3.2,3,5.7,3
2013/5/28 6:41,3.3,3,3.3,3,5.7,2
2013/5/28 6:42,3.3,3,3.3,3,5.8,4
2013/5/28 6:43,3.4,3,3.4,3,4.7,3
2013/5/28 6:44,3.3,3,3.3,3,4.4,3
2013/5/28 6:45,3.3,3,3.4,3,5,2
2013/5/28 6:46,3.1,2,3.3,3,3.9,3
2013/5/28 6:47,3.1,2,3.1,3,5.2,3
2013/5/28 6:48,3.2,2,3.2,3,5.4,2
2013/5/28 6:49,3.2,2,3.2,3,5.1,3
2013/5/28 6:50,3.2,2,3.3,3,6.1,3
2013/5/28 6:51,3.3,2,3.3,3,4.9,3
2013/5/28 6:52,3.1,2,3.2,3,5.5,3
2013/5/28 6:53,3.2,2,3.2,3,6,2
2013/5/28 6:54,3.2,2,3.2,3,4.2,2
2013/5/28 6:55,3.2,2,3.2,3,4.7,1
2013/5/28 6:56,3.2,2,3.2,2,5.4,2
2013/5/28 6:57,3.2,2,3.2,2,4.7,2
2013/5/28 6:58,3.4,2,3.4,2,6.9,3
2013/5/28 6:59,3.4,2,3.4,2,6.2,2
2013/5/28 7:00,3.5,2,3.5,2,6.7,3
2013/5/28 7:01,3.5,2,3.5,2,6.1,3
2013/5/28 7:02,3.5,2,3.5,2,4.9,3
2013/5/28 7:03,3.4,3,3.5,2,5.2,3
2013/5/28 7:04,3.5,3,3.5,2,6.4,3
2013/5/28 7:05,3.6,3,3.6,3,5.2,2
2013/5/28 7:06,3.6,3,3.6,3,5.2,1
2013/5/28 7:07,3.7,3,3.7,3,5.5,4
2013/5/28 7:08,3.6,3,3.7,3,5.8,3
2013/5/28 7:09,3.4,3,3.6,3,4.5,3
2013/5/28 7:10,3.3,3,3.4,3,4.5,4
2013/5/28 7:11,3.3,3,3.4,3,5.8,3
2013/5/28 7:12,3.4,3,3.4,3,5.6,3
2013/5/28 7:13,3.4,2,3.4,3,6.2,3
2013/5/28 7:14,3.3,2,3.5,3,5.1,2
2013/5/28 7:15,3.4,2,3.4,3,7,3
2013/5/28 7:16,3.5,3,3.5,3,5.7,3
2013/5/28 7:17,3.4,2,3.5,3,4.7,3
2013/5/28 7:18,3.4,2,3.4,3,5.8,3
2013/5/28 7:19,3.5,2,3.5,2,5.7,3
2013/5/28 7:20,3.8,2,3.8,2,8.4,3
2013/5/28 7:21,3.9,2,3.9,2,6.4,3
2013/5/28 7:22,3.8,2,3.9,2,4.7,2
2013/5/28 7:23,3.8,2,3.8,2,4.9,2
2013/5/28 7:24,3.8,2,3.8,2,5.8,3
2013/5/28 7:25,3.7,2,3.8,2,6,3
2013/5/28 7:26,3.7,2,3.8,2,4.9,3
2013/5/28 7:27,3.8,2,3.8,2,4.9,1
2013/5/28 7:28,3.7,2,3.8,2,6,3
2013/5/28 7:29,3.6,3,3.7,2,3.8,3
2013/5/28 7:30,3.3,3,3.6,2,6.4,3
2013/5/28 7:31,3.3,3,3.4,2,6.7,3
2013/5/28 7:32,3.5,3,3.5,2,5.6,3
2013/5/28 7:33,3.6,3,3.6,2,5.1,4
2013/5/28 7:34,3.7,3,3.7,2,6.3,3
2013/5/28 7:35,3.8,3,3.8,2,6.8,4
2013/5/28 7:36,3.8,3,3.8,2,5.6,3
2013/5/28 7:37,3.8,3,3.8,2,5.4,5
2013/5/28 7:38,3.7,3,3.8,3,4.2,3
2013/5/28 7:39,3.9,3,3.9,3,6.3,3
2013/5/28 7:40,4,3,4,3,6.2,2
2013/5/28 7:41,3.9,3,4,3,6.1,3
2013/5/28 7:42,3.7,3,3.9,3,4.7,4
2013/5/28 7:43,3.8,3,3.8,3,6.7,4
2013/5/28 7:44,3.6,3,3.8,3,4.9,5
2013/5/28 7:45,3.5,3,3.6,3,5.7,3
2013/5/28 7:46,3.6,3,3.6,3,5.7,3
2013/5/28 7:47,3.7,3,3.7,3,6,2
2013/5/28 7:48,3.7,3,3.7,3,5.1,4
2013/5/28 7:49,3.7,3,3.8,3,5.1,2
2013/5/28 7:50,3.6,3,3.7,3,4.7,3
2013/5/28 7:51,3.6,3,3.6,3,4.7,3
2013/5/28 7:52,3.7,3,3.7,3,5.5,3
2013/5/28 7:53,3.7,3,3.7,3,7.1,3
2013/5/28 7:54,3.9,3,3.9,3,7.1,3
2013/5/28 7:55,4,3,4.1,3,6.7,3
2013/5/28 7:56,3.9,3,4,3,4.1,3
2013/5/28 7:57,3.7,3,3.9,3,5,2
2013/5/28 7:58,3.7,3,3.7,3,7.4,3
2013/5/28 7:59,3.7,3,3.8,3,6.7,3
2013/5/28 8:00,3.9,3,3.9,3,6.5,3
2013/5/28 8:01,3.8,3,3.9,3,4.9,3
2013/5/28 8:02,3.8,3,3.9,3,5.1,2
2013/5/28 8:03,3.6,3,3.7,3,5.1,3
2013/5/28 8:04,3.4,3,3.6,3,4.2,2
2013/5/28 8:05,3.2,2,3.3,3,3.8,3
2013/5/28 8:06,3.2,2,3.2,3,5.5,3
2013/5/28 8:07,3.4,3,3.4,3,5.4,3
2013/5/28 8:08,3.2,3,3.3,3,4.7,1
2013/5/28 8:09,3.1,3,3.2,3,4.9,3
2013/5/28 8:10,3,2,3.1,3,4.7,3
2013/5/28 8:11,2.9,2,3,3,4.9,3
2013/5/28 8:12,2.8,2,2.9,3,3.8,4
2013/5/28 8:13,2.7,2,2.8,3,2.9,1
2013/5/28 8:14,2.8,2,2.8,3,5.4,3
2013/5/28 8:15,2.9,2,2.9,3,6.3,3
2013/5/28 8:16,2.9,2,2.9,3,5.2,3
2013/5/28 8:17,2.7,2,2.9,3,4.9,4
2013/5/28 8:18,2.8,2,2.8,2,5.7,3
2013/5/28 8:19,2.9,2,3,3,5.2,2
2013/5/28 8:20,2.8,2,2.9,2,4.5,2
2013/5/28 8:21,3,2,3,2,5.5,3
2013/5/28 8:22,3.1,2,3.1,2,4.8,3
2013/5/28 8:23,3.2,2,3.2,2,3.3,3
2013/5/28 8:24,3.2,2,3.2,2,5.2,2
2013/5/28 8:25,3.2,2,3.2,2,5.5,4
2013/5/28 8:26,3.3,2,3.3,2,5.7,3
2013/5/28 8:27,3.4,2,3.4,2,4.9,3
2013/5/28 8:28,3.4,2,3.4,2,5.7,3
2013/5/28 8:29,3.4,2,3.4,2,5.6,3
2013/5/28 8:30,3.5,3,3.5,2,4.4,3
2013/5/28 8:31,3.5,3,3.5,2,6.1,3
2013/5/28 8:32,3.6,3,3.6,3,5.4,3
2013/5/28 8:33,3.8,3,3.8,3,5.4,3
2013/5/28 8:34,3.8,3,3.8,3,5.4,3
2013/5/28 8:35,3.7,3,3.7,3,4.9,4
2013/5/28 8:36,3.5,3,3.7,3,4.2,3
2013/5/28 8:37,3.6,3,3.6,3,6.4,3
2013/5/28 8:38,3.6,3,3.6,3,6.1,3
2013/5/28 8:39,3.6,3,3.6,3,5.2,3
2013/5/28 8:40,3.7,3,3.7,3,5,3
2013/5/28 8:41,3.5,3,3.7,3,4.5,3
2013/5/28 8:42,3.3,3,3.5,3,5,2
2013/5/28 8:43,3.3,3,3.4,3,6.3,2
2013/5/28 8:44,3.2,3,3.3,3,4.7,2
2013/5/28 8:45,3.2,2,3.2,3,7.4,3
2013/5/28 8:46,3.6,3,3.6,3,7.8,3
2013/5/28 8:47,3.6,2,3.6,3,5.6,3
2013/5/28 8:48,3.6,2,3.6,3,6.2,3
2013/5/28 8:49,3.5,3,3.6,3,4.1,4
2013/5/28 8:50,3.4,2,3.5,3,5.2,2
2013/5/28 8:51,3.5,3,3.5,3,4.8,3
2013/5/28 8:52,3.6,3,3.6,3,9.3,3
2013/5/28 8:53,3.8,3,3.8,3,9.5,3
2013/5/28 8:54,3.9,3,3.9,3,5.5,3
2013/5/28 8:55,4,3,4.1,3,6,3
2013/5/28 8:56,3.9,3,4,3,6.9,4
2013/5/28 8:57,4,3,4,3,6.4,3
2013/5/28 8:58,4.1,3,4.1,3,6.9,3
2013/5/28 8:59,4.2,3,4.2,3,5,3
2013/5/28 9:00,4.2,3,4.2,3,6.7,3
2013/5/28 9:01,4.4,3,4.4,3,7.5,3
2013/5/28 9:02,4.5,3,4.6,3,6.9,2
2013/5/28 9:03,4.4,3,4.5,3,5.6,3
2013/5/28 9:04,4.3,3,4.4,3,5.8,2
2013/5/28 9:05,4.3,3,4.3,3,7.5,4
2013/5/28 9:06,4.3,3,4.3,3,6.1,4
2013/5/28 9:07,4.1,3,4.3,3,4.8,3
2013/5/28 9:08,4,3,4.1,3,6.3,3
2013/5/28 9:09,4,3,4,3,5.1,4
2013/5/28 9:10,3.9,3,4,3,4.1,3
2013/5/28 9:11,3.8,3,4,3,4.8,4
2013/5/28 9:12,3.7,3,3.8,3,4.7,5
2013/5/28 9:13,3.7,3,3.7,3,5.2,4
2013/5/28 9:14,3.6,3,3.7,3,3.7,4
2013/5/28 9:15,3.5,3,3.5,3,5.4,3
2013/5/28 9:16,3.5,3,3.5,3,5.1,3
2013/5/28 9:17,3.7,3,3.7,3,7.9,4
2013/5/28 9:18,3.6,3,3.7,3,5,4
2013/5/28 9:19,3.8,3,3.8,3,6.5,3
2013/5/28 9:20,3.9,3,3.9,3,5.8,3
2013/5/28 9:21,3.9,3,3.9,3,6.7,4
2013/5/28 9:22,3.7,3,3.8,3,3.6,3
2013/5/28 9:23,3.7,3,3.7,3,4.7,3
2013/5/28 9:24,3.9,3,3.9,3,7,4
2013/5/28 9:25,3.9,3,4,3,5.8,4
2013/5/28 9:26,3.9,3,3.9,3,4.9,3
2013/5/28 9:27,3.8,3,3.9,3,5.6,3
2013/5/28 9:28,3.7,3,3.8,3,4.8,3
2013/5/28 9:29,3.4,3,3.7,3,3.5,3
2013/5/28 9:30,3.3,3,3.4,3,4.8,3
2013/5/28 9:31,3.5,3,3.5,3,7.7,5
2013/5/28 9:32,3.8,3,3.8,3,6.9,3
2013/5/28 9:33,3.8,3,3.9,3,6.8,5
2013/5/28 9:34,3.6,3,3.8,3,4.3,3
2013/5/28 9:35,3.6,3,3.6,3,4.8,6
2013/5/28 9:36,3.4,3,3.6,3,3.7,3
2013/5/28 9:37,3.5,3,3.5,3,7,3
2013/5/28 9:38,3.8,3,3.8,3,8.3,3
2013/5/28 9:39,3.9,4,3.9,3,5.2,4
2013/5/28 9:40,3.9,4,3.9,3,4.9,6
2013/5/28 9:41,3.6,4,3.8,3,4.2,4
2013/5/28 9:42,3.4,4,3.6,3,3.6,4
2013/5/28 9:43,3.1,4,3.3,3,3.2,3
2013/5/28 9:44,3.1,4,3.1,3,4.3,3
2013/5/28 9:45,2.9,4,3.1,3,2.4,2
2013/5/28 9:46,2.9,4,2.9,3,4.4,3
2013/5/28 9:47,2.7,4,2.9,3,3.3,4
2013/5/28 9:48,2.4,4,2.7,3,3.8,5
2013/5/28 9:49,2.3,4,2.4,4,3,4
2013/5/28 9:50,2.4,4,2.4,4,5,4
2013/5/28 9:51,2.5,4,2.5,4,4.8,4
2013/5/28 9:52,2.6,4,2.6,4,4.4,5
2013/5/28 9:53,2.7,4,2.7,4,4.4,4
2013/5/28 9:54,2.8,4,2.8,4,5.1,4
2013/5/28 9:55,3,4,3,4,4.5,4
2013/5/28 9:56,3,4,3.1,4,4.7,5
2013/5/28 9:57,3.2,4,3.2,4,6.3,5
2013/5/28 9:58,3.3,4,3.3,4,6.2,5
2013/5/28 9:59,3.4,4,3.4,4,5,3
2013/5/28 10:00,3.3,4,3.4,4,4.3,4
2013/5/28 10:01,3.2,4,3.3,4,3.6,3
2013/5/28 10:02,3,4,3.1,4,4.1,5
2013/5/28 10:03,3,4,3,4,4.7,5
2013/5/28 10:04,3,5,3,4,4.7,5
2013/5/28 10:05,2.9,5,3,4,3.7,5
2013/5/28 10:06,2.9,5,2.9,4,3.6,4
2013/5/28 10:07,2.9,5,2.9,4,5.6,3
2013/5/28 10:08,2.9,4,2.9,4,4.4,5
2013/5/28 10:09,2.9,5,2.9,4,4.9,5
2013/5/28 10:10,2.8,5,2.9,4,4.3,5
2013/5/28 10:11,2.9,5,2.9,4,4.4,5
2013/5/28 10:12,2.9,5,3,4,3.5,4
2013/5/28 10:13,2.8,5,2.9,4,3.2,6
2013/5/28 10:14,2.8,5,2.8,5,4.3,4
2013/5/28 10:15,2.8,5,2.8,5,4.4,4
2013/5/28 10:16,2.8,5,2.8,5,3.3,4
2013/5/28 10:17,2.7,5,2.8,5,3.3,4
2013/5/28 10:18,2.6,5,2.7,5,3.5,3
2013/5/28 10:19,2.6,4,2.6,5,3.3,3
2013/5/28 10:20,2.5,4,2.5,5,3.5,2
2013/5/28 10:21,2.5,4,2.5,5,4.5,5
2013/5/28 10:22,2.5,4,2.5,5,3.8,5
2013/5/28 10:23,2.6,4,2.6,5,3.2,3
2013/5/28 10:24,2.5,4,2.6,5,2.6,5
2013/5/28 10:25,2.4,4,2.5,5,2.9,3
2013/5/28 10:26,2.4,4,2.4,5,3.9,5
2013/5/28 10:27,2.4,4,2.4,5,4.7,5
2013/5/28 10:28,2.5,4,2.5,5,4.7,5
2013/5/28 10:29,2.5,4,2.5,4,4.3,4
2013/5/28 10:30,2.6,4,2.6,4,3.8,3
2013/5/28 10:31,2.5,4,2.6,4,3.6,5
2013/5/28 10:32,2.5,4,2.5,4,3.9,4
2013/5/28 10:33,2.5,4,2.6,4,3.8,4
2013/5/28 10:34,2.5,4,2.5,4,3.6,4
2013/5/28 10:35,2.6,4,2.6,4,4.2,4
2013/5/28 10:36,2.6,4,2.7,4,2.9,4
2013/5/28 10:37,2.5,4,2.6,4,2.9,3
2013/5/28 10:38,2.4,4,2.5,4,2.9,5
2013/5/28 10:39,2.3,4,2.4,4,3.3,3
2013/5/28 10:40,2.2,4,2.3,4,3.7,4
2013/5/28 10:41,2.3,4,2.3,4,3.3,3
2013/5/28 10:42,2.2,4,2.3,4,3.1,3
2013/5/28 10:43,2.1,4,2.2,4,4.1,4
2013/5/28 10:44,2.2,4,2.2,4,4.1,3
2013/5/28 10:45,2.1,4,2.2,4,3.5,4
2013/5/28 10:46,2.2,3,2.2,4,4.1,2
2013/5/28 10:47,2.2,3,2.2,4,4.5,2
2013/5/28 10:48,2.3,3,2.3,4,4.1,4
2013/5/28 10:49,2.4,3,2.4,3,4.1,5
2013/5/28 10:50,2.4,3,2.4,3,3.2,4
2013/5/28 10:51,2.4,4,2.4,3,3,4
2013/5/28 10:52,2.3,4,2.4,3,1.8,3
2013/5/28 10:53,2.3,4,2.3,3,2.7,4
2013/5/28 10:54,2.2,4,2.3,3,3,5
2013/5/28 10:55,2.2,4,2.2,3,2.4,4
2013/5/28 10:56,2.2,4,2.2,3,4.1,5
2013/5/28 10:57,2.2,4,2.2,3,3.9,4
2013/5/28 10:58,2.2,4,2.2,3,4.3,5
2013/5/28 10:59,2.1,4,2.2,3,3.1,5
2013/5/28 11:00,2.1,4,2.1,3,3.7,5
2013/5/28 11:01,2.1,4,2.1,4,3.5,5
2013/5/28 11:02,2.3,4,2.3,4,4.2,4
2013/5/28 11:03,2.3,4,2.4,4,3.5,5
2013/5/28 11:04,2.4,4,2.4,4,5.2,3
2013/5/28 11:05,2.6,4,2.6,4,5.4,3
2013/5/28 11:06,2.5,4,2.6,4,3.2,5
2013/5/28 11:07,2.6,4,2.6,4,3.7,5
2013/5/28 11:08,2.5,4,2.6,4,3.8,5
2013/5/28 11:09,2.5,4,2.5,4,3.3,4
2013/5/28 11:10,2.6,4,2.6,4,4.5,5
2013/5/28 11:11,2.7,4,2.7,4,4.4,4
2013/5/28 11:12,2.8,4,2.8,4,4.9,4
2013/5/28 11:13,2.8,4,2.8,4,3.8,5
2013/5/28 11:14,2.8,4,2.9,4,3.9,4
2013/5/28 11:15,2.8,4,2.8,4,4.7,4
2013/5/28 11:16,2.9,4,2.9,4,6,5
2013/5/28 11:17,3.1,4,3.1,4,7.2,5
2013/5/28 11:18,3.3,4,3.3,4,6.2,5
2013/5/28 11:19,3.5,4,3.5,4,6.4,5
2013/5/28 11:20,3.5,4,3.5,4,5.5,5
2013/5/28 11:21,3.4,4,3.5,4,3.5,3
2013/5/28 11:22,3.4,4,3.4,4,3.9,5
2013/5/28 11:23,3.2,4,3.3,4,2.5,5
2013/5/28 11:24,3.3,4,3.3,4,3.9,5
2013/5/28 11:25,3.3,4,3.3,4,4.5,5
2013/5/28 11:26,3.2,4,3.3,4,4.4,6
2013/5/28 11:27,3,4,3.2,4,5.5,2
2013/5/28 11:28,2.9,5,3,4,4.9,5
2013/5/28 11:29,2.7,5,2.8,4,3.5,6
2013/5/28 11:30,2.6,5,2.7,4,4.5,6
2013/5/28 11:31,2.7,5,2.7,4,5,5
2013/5/28 11:32,2.8,5,2.8,4,3.9,5
2013/5/28 11:33,3,5,3,4,5,5
2013/5/28 11:34,3,5,3,4,4.8,5
2013/5/28 11:35,3,5,3,4,3.6,5
2013/5/28 11:36,3.1,5,3.1,4,5.8,6
2013/5/28 11:37,3.1,5,3.1,5,4.3,6
2013/5/28 11:38,3.1,5,3.1,5,5.4,5
2013/5/28 11:39,3.1,5,3.1,5,4.8,4
2013/5/28 11:40,3.1,5,3.1,5,3,5
2013/5/28 11:41,3,5,3.1,5,4.1,5
2013/5/28 11:42,3,5,3.1,5,3.5,5
2013/5/28 11:43,2.9,5,3,5,3.7,4
2013/5/28 11:44,2.9,5,2.9,5,4.2,5
2013/5/28 11:45,2.9,5,2.9,5,3.3,3
2013/5/28 11:46,2.7,5,2.9,5,4.1,5
2013/5/28 11:47,2.7,5,2.7,5,4.2,5
2013/5/28 11:48,2.7,5,2.7,5,4.3,5